カタログに戻る

STARLINK-31733

運用中通信VLEO
NORAD 59486·PAYLOAD·🇺🇸 United States

打ち上げ Apr 13, 2024 から Cape Canaveral Space Force Station

Loading…

次のパス (今後24時間)

TLE

最新Source: CelesTrak SupGP

元期: Sep 14, 2026, 22:01 UTC

1 59486C 24071C   26257.91784722 -.00014519  00000+0 -52550-3 0  2576
2 59486  43.0017 350.7752 0001506 279.1545 281.4235 15.27608842    12

AllMySatでSTARLINK-31733をリアルタイム追跡

Download on the App Store